This is the latest recevied weather packets stored in our database for station/object DG9VH-13. If no packets are shown the sender has not sent any weather packets the latest 10 day(s).
| Time | Temp. | Humidity | Pressure | Rain* | Wind** | Luminosity | Snow |
|---|---|---|---|---|---|---|---|
| 1788436803 | 25° C | 46% | 1003.8 hPa | - | - | - | - |
| 1788436203 | 25° C | 45% | 1003.8 hPa | - | - | - | - |
| 1788435602 | 25° C | 45% | 1003.8 hPa | - | - | - | - |
| 1788435003 | 25° C | 45% | 1003.6 hPa | - | - | - | - |
| 1788434402 | 25° C | 46% | 1003.6 hPa | - | - | - | - |
| 1788433803 | 25° C | 45% | 1003.5 hPa | - | - | - | - |
| 1788433202 | 25° C | 46% | 1003.7 hPa | - | - | - | - |
| 1788432601 | 24.44° C | 47% | 1003.9 hPa | - | - | - | - |
| 1788432002 | 23.89° C | 46% | 1003.9 hPa | - | - | - | - |
| 1788431400 | 23.89° C | 47% | 1004 hPa | - | - | - | - |
| 1788430803 | 24.44° C | 45% | 1004.1 hPa | - | - | - | - |
| 1788430200 | 25° C | 45% | 1004.2 hPa | - | - | - | - |
| 1788429602 | 25° C | 45% | 1004.5 hPa | - | - | - | - |
| 1788429001 | 25° C | 45% | 1004.5 hPa | - | - | - | - |
| 1788428401 | 25° C | 44% | 1004.6 hPa | - | - | - | - |
| 1788427802 | 26.11° C | 43% | 1004.5 hPa | - | - | - | - |
| 1788427203 | 26.11° C | 42% | 1004.4 hPa | - | - | - | - |
| 1788426601 | 26.11° C | 43% | 1004.4 hPa | - | - | - | - |
| 1788426001 | 26.11° C | 42% | 1004.6 hPa | - | - | - | - |
| 1788425401 | 26.67° C | 41% | 1004.3 hPa | - | - | - | - |
| 1788424800 | 26.11° C | 42% | 1004.5 hPa | - | - | - | - |
| 1788424201 | 26.11° C | 41% | 1004.3 hPa | - | - | - | - |
| 1788423601 | 26.11° C | 42% | - | - | - | - | - |
| 1788423001 | 28.33° C | 40% | 1002.8 hPa | - | - | - | - |
| 1788422401 | 27.78° C | 40% | 1005.6 hPa | - | - | - | - |
* Rain since midnight (hover to see other rain measurements)
** Current wind speed in m/s (hover to see current wind gust speed)